Weather History for KTXK - September, 2012

Change the Weather History Date:

Thursday, September 27, 2012

  Actual Average Record
Temperature  
Mean Temperature 80 °F 71 °F  
Max Temperature 90 °F 83 °F 102 °F (1939)
Min Temperature 69 °F 59 °F 37 °F (1942)
Degree Days  
Heating Degree Days 0 1  
Month to date heating degree days 0 6  
Since 1 July heating degree days 0 6  
Cooling Degree Days 15 7  
Month to date cooling degree days 354 288  
Year to date cooling degree days 2653 2076  
Growing Degree Days 30 (Base 50)    
Moisture  
Dew Point 64 °F    
Average Humidity 61    
Maximum Humidity 84    
Minimum Humidity 38    
Precipitation  
Precipitation 0.00 in 0.12 in 1.18 in (1936)
Month to date precipitation 1.12 3.06  
Year to date precipitation 23.75 34.48  
Snow  
Snow 0.00 in - - ()
Month to date snowfall 0.0  
Since 1 July snowfall 0.0  
Since 1 September snowfall 0.0  
Snow Depth 0.00 in    
Sea Level Pressure  
Sea Level Pressure 30.06 in    
Wind  
Wind Speed 6 mph (South)    
Max Wind Speed 13 mph    
Max Gust Speed 16 mph    
Visibility 10 miles    
Events      
T = Trace of Precipitation, MM = Missing Value Source: NWS Daily Summary

Daily Weather History Graph

Daily Weather History Graph

Search for Another Location

Airport or City:

Trip Planner

Search our weather history database for the weather conditions in past years. The results will help you decide how hot, cold, wet, or windy it might be!

Date:

Astronomy

Sep. 27, 2012 Rise Set
Actual Time 7:07 AM CDT 7:05 PM CDT
Civil Twilight 6:43 AM CDT 7:29 PM CDT
Nautical Twilight 6:14 AM CDT 7:58 PM CDT
Astronomical Twilight 5:45 AM CDT 8:27 PM CDT
Moon 5:33 PM CDT (9/27) 4:43 AM CDT (9/27)
Length of Visible Light 12h 46m
Length of Day
11h 57m
Waxing Gibbous, 94% of the Moon is Illuminated
Sep 27
Waxing Gibbous
Sep 29
Full
Oct 8
Last Quarter
Oct 15
New
Oct 21
First Quarter

Hourly Weather History & Observations

Time (CDT) Temp. Heat Index Dew Point Humidity Pressure Visibility Wind Dir Wind Speed Gust Speed Precip Events Conditions
12:53 AM 75.9 °F - 64.0 °F 67% 30.04 in 10.0 mi South 8.1 mph - N/A   Clear
1:53 AM 73.9 °F - 64.0 °F 71% 30.05 in 10.0 mi South 6.9 mph - N/A   Clear
2:53 AM 73.0 °F - 64.0 °F 73% 30.06 in 10.0 mi South 5.8 mph - N/A   Clear
3:53 AM 73.0 °F - 64.0 °F 73% 30.05 in 10.0 mi South 8.1 mph - N/A   Clear
4:53 AM 72.0 °F - 64.9 °F 78% 30.06 in 10.0 mi SSW 6.9 mph - N/A   Clear
5:53 AM 70.0 °F - 64.9 °F 84% 30.08 in 10.0 mi SSW 5.8 mph - N/A   Clear
6:53 AM 70.0 °F - 64.9 °F 84% 30.09 in 9.0 mi South 3.5 mph - N/A   Clear
7:53 AM 71.1 °F - 66.0 °F 84% 30.11 in 8.0 mi South 3.5 mph - N/A   Clear
8:53 AM 75.0 °F - 68.0 °F 79% 30.11 in 9.0 mi SW 4.6 mph - N/A   Clear
9:53 AM 80.1 °F 83.2 °F 70.0 °F 71% 30.11 in 10.0 mi WSW 6.9 mph - N/A   Clear
10:53 AM 82.9 °F 85.4 °F 66.9 °F 58% 30.12 in 10.0 mi WSW 11.5 mph - N/A   Clear
11:53 AM 84.0 °F 86.3 °F 66.0 °F 55% 30.10 in 10.0 mi West 5.8 mph - N/A   Mostly Cloudy
12:53 PM 87.1 °F 89.2 °F 66.0 °F 49% 30.09 in 10.0 mi WSW 8.1 mph - N/A   Scattered Clouds
1:53 PM 86.0 °F 87.6 °F 64.9 °F 49% 30.05 in 10.0 mi Variable 4.6 mph - N/A   Mostly Cloudy
2:53 PM 87.1 °F 88.3 °F 64.0 °F 46% 30.02 in 10.0 mi SE 8.1 mph - N/A   Partly Cloudy
3:53 PM 90.0 °F 89.7 °F 60.1 °F 37% 30.00 in 10.0 mi SE 9.2 mph - N/A   Partly Cloudy
4:53 PM 89.1 °F 89.0 °F 61.0 °F 39% 29.99 in 10.0 mi ESE 4.6 mph - N/A   Partly Cloudy
5:53 PM 88.0 °F 87.1 °F 59.0 °F 37% 29.99 in 10.0 mi South 6.9 mph - N/A   Clear
6:53 PM 84.0 °F 84.4 °F 61.0 °F 46% 30.02 in 10.0 mi SE 4.6 mph - N/A   Clear
7:53 PM 79.0 °F - 62.1 °F 56% 30.04 in 10.0 mi SE 4.6 mph - N/A   Clear
8:53 PM 78.1 °F - 62.1 °F 58% 30.05 in 10.0 mi ESE 4.6 mph - N/A   Clear
9:53 PM 75.9 °F - 63.0 °F 64% 30.05 in 10.0 mi SE 5.8 mph - N/A   Clear
10:53 PM 75.0 °F - 64.0 °F 69% 30.05 in 10.0 mi Calm Calm - N/A   Clear
11:53 PM 72.0 °F - 64.0 °F 76% 30.05 in 10.0 mi NNE 4.6 mph - N/A   Clear